Weather History for Medicine Lodge, KS

Change the Weather History Date:

Wednesday, October 3, 2012

  Actual Average Record
Temperature  
Mean Temperature 63 °F 64 °F  
Max Temperature 83 °F 77 °F 97 °F (1954)
Min Temperature 43 °F 51 °F 33 °F (1980)
Degree Days  
Heating Degree Days 2 4  
Month to date heating degree days 11 12  
Since 1 July heating degree days 23 46  
Cooling Degree Days 0 3  
Month to date cooling degree days 0 9  
Year to date cooling degree days 2212 1740  
Growing Degree Days 13 (Base 50)    
Moisture  
Dew Point 43 °F    
Average Humidity 52    
Maximum Humidity 76    
Minimum Humidity 28    
Precipitation  
Precipitation 0.00 in 0.08 in 3.38 in (1926)
Month to date precipitation 0.00 0.26  
Year to date precipitation 16.87 22.71  
Snow  
Snow 0.00 in 0.00 in - ()
Month to date snowfall 0.0 0.0  
Since 1 July snowfall 0.0 0.0  
Since 1 September snowfall 0.0 0.0  
Snow Depth -    
Sea Level Pressure  
Sea Level Pressure 29.88 in    
Wind  
Wind Speed 10 mph (SSE)    
Max Wind Speed 23 mph    
Max Gust Speed 31 mph    
T = Trace of Precipitation, MM = Missing Value Source: NWS Daily Summary

Daily Weather History Graph

Daily Weather History Graph

Search for Another Location

Airport:

Trip Planner

Search our weather history database for the weather conditions in past years. The results will help you decide how hot, cold, wet, or windy it might be!

Date:

Astronomy

Oct. 03, 2012 Rise Set
Actual Time 7:31 AM CDT 7:13 PM CDT
Civil Twilight 7:05 AM CDT 7:39 PM CDT
Nautical Twilight 6:35 AM CDT 8:09 PM CDT
Astronomical Twilight 6:05 AM CDT 8:40 PM CDT
Moon 9:12 PM CDT (10/3) 10:51 AM CDT (10/3)
Length of Visible Light 12h 33m
Length of Day
11h 41m
Waning Gibbous, 88% of the Moon is Illuminated
Oct 3
Waning Gibbous
Oct 8
Last Quarter
Oct 15
New
Oct 21
First Quarter
Oct 29
Full

Hourly Weather History & Observations

Time (CDT) Temp. Dew Point Humidity Pressure Visibility Wind Dir Wind Speed Gust Speed Precip Events Conditions
12:56 AM 51.1 °F 37.0 °F 59% 29.91 in - Calm Calm - N/A   Unknown
1:56 AM 52.0 °F 37.0 °F 57% 29.91 in - SSE 3.5 mph - N/A   Unknown
2:56 AM 44.1 °F 37.0 °F 76% 29.91 in - Calm Calm - N/A   Unknown
3:56 AM 45.0 °F 37.0 °F 74% 29.91 in - Calm Calm - N/A   Unknown
4:56 AM 51.1 °F 37.9 °F 61% 29.91 in - SE 3.5 mph - N/A   Unknown
5:56 AM 48.0 °F 37.0 °F 66% 29.91 in - SE 3.5 mph - N/A   Unknown
6:56 AM 50.0 °F 37.9 °F 63% 29.91 in - ESE 6.9 mph - N/A   Unknown
7:56 AM 50.0 °F 37.9 °F 63% 29.92 in - ESE 4.6 mph - N/A   Unknown
8:56 AM 55.0 °F 39.9 °F 57% 29.92 in - SE 5.8 mph - N/A   Unknown
9:56 AM 63.0 °F 39.9 °F 43% 29.92 in - SSE 8.1 mph - N/A   Unknown
10:56 AM 69.1 °F 41.0 °F 36% 29.91 in - South 12.7 mph - N/A   Unknown
11:56 AM 73.9 °F 43.0 °F 33% 29.89 in - South 18.4 mph 24.2 mph N/A   Unknown
12:56 PM 78.1 °F 45.0 °F 31% 29.86 in - SSW 19.6 mph 26.5 mph N/A   Unknown
1:56 PM 80.1 °F 46.0 °F 30% 29.83 in - South 21.9 mph 27.6 mph N/A   Unknown
2:56 PM 82.0 °F 46.9 °F 29% 29.81 in - South 16.1 mph 31.1 mph N/A   Unknown
3:56 PM 82.9 °F 48.0 °F 29% 29.80 in - South 15.0 mph 25.3 mph N/A   Unknown
4:56 PM 82.0 °F 48.0 °F 30% 29.79 in - South 19.6 mph 29.9 mph N/A   Unknown
5:56 PM 81.0 °F 48.0 °F 31% 29.81 in - South 19.6 mph 25.3 mph N/A   Unknown
6:56 PM 78.1 °F 48.9 °F 36% 29.82 in - South 15.0 mph - N/A   Unknown
7:56 PM 75.0 °F 48.9 °F 40% 29.85 in - SSE 9.2 mph - N/A   Unknown
8:56 PM 72.0 °F 48.9 °F 44% 29.87 in - South 9.2 mph - N/A   Unknown
9:56 PM 70.0 °F 50.0 °F 49% 29.88 in - South 9.2 mph - N/A   Unknown
10:56 PM 68.0 °F 50.0 °F 52% 29.89 in - South 8.1 mph 18.4 mph N/A   Unknown
11:56 PM 66.0 °F 51.1 °F 59% 29.91 in - South 4.6 mph - N/A   Unknown